TITAN 3A DEB (TRUSS), 1000

Orbit data source: Space-Track

TITAN 3A DEB (TRUSS), 1000 is space debris in LEO originally from a launch on Thu, 11 Feb 1965 UTC launched from the Air Force Eastern Test Range (AFETR). Debris objects in space refer to the collection of defunct objects orbiting the Earth. Examples of debris include non-operational satellites, rocket bodies, and fragments generated from explosions, collisions, or faulty payload assembly.

Loading next visibility...
Identifier
1000, 1965-008B
Orbit
LEO
Country
Flag of USUS
Related business
Manufacturer
Martin Marietta
Mission
Spacecraft
Bus & Motor
TRANSTAGE, Unknown motor
Mass
1,950 kg wet, 1,950 kg dry
Launch date (UTC)
1965-02-11 (61 years ago)
Launch vehicle
Unknown
Launch site
Air Force Eastern Test Range (AFETR)
Object type
Payload
Rocket body
Debris
Shape & HBR
Cyl + 2 Nozzle, 2.3 m
Radar Cross Section
14.974 m², Large (>1 m²)

Expand to show TLE details & history
Last TLE update: 11 hours ago

TLE from 11 hours ago
0 TITAN 3A DEB (TRUSS)
1 01000U 65008B   25261.01913754  .00000018  00000-0  13246-2 0  9993
2 01000  32.1414 261.2693 0011854 112.0165 248.1593  9.88891256190415
Epoch: 2025-09-18T00:27Z
TLE epoch observation values (Epoch: 2025-09-18T00:27:33.483Z)
Latitude
0.00003°
Longitude
-102.80691°
Altitude
2,793.473 km
Speed
6.593 km/s
True Right ascension
17h 25m 04s
True Declination
0° 00' 00"
Sunlit
Object was in daylight at epoch
Visualization orbit readout
Latitude
Unknown
Longitude
Unknown
Altitude
Unknown
Speed
Unknown
Apparent Right ascension
Unknown
Apparent Declination
Unknown
Sunlit
N/A
Visualization observer readout
Local Sidereal Time
04:46:43
Azimuth
Unknown
Elevation
Unknown
Doppler factor
Unknown
Orbital elements
Apogee altitude
2,804.101 km
Perigee altitude
2,782.357 km
Semi-major axis
9,171.366 km
Eccentricity
0.00119
Inclination
32.1414°
RAAN
261.2693°
Arg. of periapsis
112.0165°
True anomaly
248.03328°
Mean anomaly
248.1593°
Eccentric anomaly
248.09628°
Mean motion
2.47111 °/min
Orbital period
145.68 mins
BSTAR
0.0013246
Loading maneuver chart data...
Computing Atmospheric mass density...
Loading historical data...
Loading historical data...
Loading historical data...
Loading historical data...
Loading historical data...
Loading historical data...
Loading historical data...
Other satellites on launch #8 in the year 1965 (1965-02-11 UTC)

Documentation

Showing up to 5 results
|